,,,PA_Meas_PMT16A,,PR_Meas_QMR101_102,,RH_Meas_QMH101,,SR_Meas_QMS101,,TA_Meas_QMH101,,GenWind,,GenWind,
date,time,status,PA,status,PR,status,RH,status,SR,status,TA,status,DirAvg,status,SpdAvg,
2011-03-03, 00:00:04,VALID,1009.82,VALID,0,VALID,104,VALID,0.105969,VALID,23.4389,VALID,17,VALID,0,
2011-03-03, 00:01:04,VALID,1009.8,VALID,0,VALID,104,VALID,0.105969,VALID,23.4389,VALID,17,VALID,0,
2011-03-03, 00:02:04,VALID,1009.78,VALID,0,VALID,104,VALID,0.105969,VALID,23.4389,VALID,17,VALID,0,
2011-03-03, 00:03:04,VALID,1009.78,VALID,0,VALID,104,VALID,0.105969,VALID,23.4584,VALID,17,VALID,0,
2011-03-03, 00:04:04,VALID,1009.79,VALID,0,VALID,104,VALID,0.105969,VALID,23.4389,VALID,17,VALID,0,
2011-03-03, 00:05:04,VALID,1009.78,VALID,0,VALID,104,VALID,0.105969,VALID,23.4194,VALID,17,VALID,0,
2011-03-03, 00:06:04,VALID,1009.77,VALID,0,VALID,104,VALID,0.105969,VALID,23.4389,VALID,17,VALID,0,
2011-03-03, 00:07:04,VALID,1009.74,VALID,0,VALID,104,VALID,0,VALID,23.4194,VALID,17,VALID,0,
2011-03-03, 00:08:04,VALID,1009.74,VALID,0,VALID,104,VALID,0,VALID,23.4602,VALID,17,VALID,0,
2011-03-03, 00:09:04,VALID,1009.72,VALID,0,VALID,104,VALID,0.105969,VALID,23.4389,VALID,17,VALID,0,
2011-03-03, 00:10:04,VALID,1009.71,VALID,0,VALID,104,VALID,0.105969,VALID,23.4389,VALID,17,VALID,0,
2011-03-03, 00:11:04,VALID,1009.69,VALID,0,VALID,104,VALID,0.105969,VALID,23.4389,VALID,22,VALID,0.132031,
2011-03-03, 00:12:04,VALID,1009.67,VALID,0,VALID,104,VALID,0.105969,VALID,23.4389,VALID,3,VALID,0.123047,
2011-03-03, 00:13:04,VALID,1009.64,VALID,0,VALID,104,VALID,0.105969,VALID,23.4974,VALID,323,VALID,0.260156,
2011-03-03, 00:14:04,VALID,1009.64,VALID,0,VALID,104,VALID,0,VALID,23.4779,VALID,323,VALID,0.102734,
2011-03-03, 00:15:04,VALID,1009.64,VALID,0,VALID,104,VALID,0.105969,VALID,23.4779,VALID,323,VALID,0,
2011-03-03, 00:16:04,VALID,1009.65,VALID,0,VALID,104,VALID,0.105969,VALID,23.4389,VALID,323,VALID,0,
2011-03-03, 00:17:04,VALID,1009.63,VALID,0,VALID,104,VALID,0.105969,VALID,23.4584,VALID,323,VALID,0.0699219,
2011-03-03, 00:18:04,VALID,1009.64,VALID,0,VALID,104,VALID,0.105969,VALID,23.4584,VALID,323,VALID,0,
2011-03-03, 00:19:04,VALID,1009.64,VALID,0,VALID,104,VALID,0.105969,VALID,23.4584,VALID,323,VALID,0,
2011-03-03, 00:20:04,VALID,1009.62,VALID,0,VALID,104,VALID,0.105969,VALID,23.4584,VALID,323,VALID,0,
2011-03-03, 00:21:04,VALID,1009.64,VALID,0,VALID,104,VALID,0,VALID,23.4584,VALID,323,VALID,0,
2011-03-03, 00:22:04,VALID,1009.6,VALID,0,VALID,104,VALID,0,VALID,23.4779,VALID,323,VALID,0,
2011-03-03, 00:23:04,VALID,1009.59,VALID,0,VALID,104,VALID,0,VALID,23.4584,VALID,323,VALID,0,
2011-03-03, 00:24:04,VALID,1009.59,VALID,0,VALID,104,VALID,0.105969,VALID,23.4779,VALID,323,VALID,0,
2011-03-03, 00:25:04,VALID,1009.56,VALID,0,VALID,104,VALID,0,VALID,23.4779,VALID,323,VALID,0,
2011-03-03, 00:26:04,VALID,1009.56,VALID,0,VALID,104,VALID,0.105969,VALID,23.4779,VALID,323,VALID,0,
2011-03-03, 00:27:04,VALID,1009.55,VALID,0,VALID,104,VALID,0.105969,VALID,23.4974,VALID,323,VALID,0,
2011-03-03, 00:28:04,VALID,1009.53,VALID,0,VALID,104,VALID,0,VALID,23.4974,VALID,323,VALID,0,
2011-03-03, 00:29:04,VALID,1009.49,VALID,0,VALID,104,VALID,0.105969,VALID,23.5169,VALID,323,VALID,0,
2011-03-03, 00:30:04,VALID,1009.47,VALID,0,VALID,104,VALID,0.105969,VALID,23.5169,VALID,323,VALID,0,
2011-03-03, 00:31:04,VALID,1009.47,VALID,0,VALID,104,VALID,0.105969,VALID,23.5169,VALID,323,VALID,0,
2011-03-03, 00:32:04,VALID,1009.49,VALID,0,VALID,104,VALID,0.105969,VALID,23.5381,VALID,323,VALID,0,
2011-03-03, 00:33:04,VALID,1009.47,VALID,0,VALID,104,VALID,0.105969,VALID,23.5558,VALID,323,VALID,0.0121094,
2011-03-03, 00:34:04,VALID,1009.49,VALID,0,VALID,104,VALID,0.105969,VALID,23.5558,VALID,323,VALID,0,
2011-03-03, 00:35:04,VALID,1009.48,VALID,0,VALID,104,VALID,0.105969,VALID,23.5948,VALID,308,VALID,0.0480469,
2011-03-03, 00:36:04,VALID,1009.48,VALID,0,VALID,104,VALID,0.105969,VALID,23.5948,VALID,308,VALID,0,
2011-03-03, 00:37:04,VALID,1009.5,VALID,0,VALID,104,VALID,0.105969,VALID,23.5948,VALID,308,VALID,0,
2011-03-03, 00:38:04,VALID,1009.5,VALID,0,VALID,104,VALID,0,VALID,23.5966,VALID,308,VALID,0,
2011-03-03, 00:39:04,VALID,1009.51,VALID,0,VALID,104,VALID,0,VALID,23.6356,VALID,308,VALID,0.0539063,
2011-03-03, 00:40:04,VALID,1009.51,VALID,0,VALID,104,VALID,0,VALID,23.6356,VALID,308,VALID,0,
2011-03-03, 00:41:04,VALID,1009.52,VALID,0,VALID,104,VALID,0,VALID,23.6356,VALID,308,VALID,0,
2011-03-03, 00:42:04,VALID,1009.52,VALID,0,VALID,104,VALID,0,VALID,23.655,VALID,308,VALID,0,
2011-03-03, 00:43:04,VALID,1009.5,VALID,0,VALID,104,VALID,0,VALID,23.694,VALID,308,VALID,0,
2011-03-03, 00:44:04,VALID,1009.5,VALID,0,VALID,104,VALID,0,VALID,23.694,VALID,308,VALID,0,
2011-03-03, 00:45:04,VALID,1009.5,VALID,0,VALID,104,VALID,0,VALID,23.7135,VALID,308,VALID,0,
2011-03-03, 00:46:04,VALID,1009.49,VALID,0,VALID,104,VALID,0,VALID,23.7135,VALID,308,VALID,0,
2011-03-03, 00:47:04,VALID,1009.49,VALID,0,VALID,104,VALID,0,VALID,23.7117,VALID,308,VALID,0,
2011-03-03, 00:48:04,VALID,1009.45,VALID,0,VALID,104,VALID,0,VALID,23.7525,VALID,308,VALID,0,
2011-03-03, 00:49:04,VALID,1009.44,VALID,0,VALID,104,VALID,0,VALID,23.7525,VALID,308,VALID,0.15625,
2011-03-03, 00:50:04,VALID,1009.41,VALID,0,VALID,104,VALID,0,VALID,23.772,VALID,308,VALID,0.178125,
2011-03-03, 00:51:04,VALID,1009.43,VALID,0,VALID,104,VALID,0,VALID,23.7914,VALID,320,VALID,0.18125,
2011-03-03, 00:52:04,VALID,1009.43,VALID,0,VALID,104,VALID,0,VALID,23.8109,VALID,322,VALID,0,
2011-03-03, 00:53:04,VALID,1009.42,VALID,0,VALID,104,VALID,0,VALID,23.7914,VALID,322,VALID,0,
2011-03-03, 00:54:04,VALID,1009.39,VALID,0,VALID,104,VALID,0,VALID,23.7914,VALID,322,VALID,0.00234375,
2011-03-03, 00:55:04,VALID,1009.38,VALID,0,VALID,104,VALID,0,VALID,23.8109,VALID,322,VALID,0,
2011-03-03, 00:56:04,VALID,1009.39,VALID,0,VALID,104,VALID,0,VALID,23.8109,VALID,322,VALID,0.0015625,
2011-03-03, 00:57:04,VALID,1009.36,VALID,0,VALID,104,VALID,0,VALID,23.8109,VALID,322,VALID,0.153125,
2011-03-03, 00:58:04,VALID,1009.35,VALID,0,VALID,104,VALID,0,VALID,23.8109,VALID,322,VALID,0.0234375,
2011-03-03, 00:59:04,VALID,1009.33,VALID,0,VALID,104,VALID,0,VALID,23.8091,VALID,322,VALID,0,
2011-03-03, 01:00:04,VALID,1009.32,VALID,0,VALID,104,VALID,0,VALID,23.8109,VALID,322,VALID,0,
2011-03-03, 01:01:04,VALID,1009.31,VALID,0,VALID,104,VALID,0,VALID,23.7914,VALID,322,VALID,0,
2011-03-03, 01:02:04,VALID,1009.3,VALID,0,VALID,104,VALID,0.105969,VALID,23.7701,VALID,322,VALID,0,
2011-03-03, 01:03:04,VALID,1009.31,VALID,0,VALID,104,VALID,0,VALID,23.7914,VALID,322,VALID,0,
2011-03-03, 01:04:04,VALID,1009.28,VALID,0,VALID,104,VALID,0,VALID,23.8109,VALID,347,VALID,0.208594,
2011-03-03, 01:05:04,VALID,1009.29,VALID,0,VALID,104,VALID,0,VALID,23.8304,VALID,347,VALID,0,
2011-03-03, 01:06:04,VALID,1009.28,VALID,0,VALID,104,VALID,0,VALID,23.8499,VALID,347,VALID,0,
2011-03-03, 01:07:04,VALID,1009.29,VALID,0,VALID,104,VALID,0,VALID,23.8304,VALID,347,VALID,0,
2011-03-03, 01:08:04,VALID,1009.27,VALID,0,VALID,104,VALID,0,VALID,23.8286,VALID,347,VALID,0,
2011-03-03, 01:09:04,VALID,1009.25,VALID,0,VALID,104,VALID,0.105969,VALID,23.8481,VALID,347,VALID,0,
2011-03-03, 01:10:04,VALID,1009.25,VALID,0,VALID,104,VALID,0.105969,VALID,23.8286,VALID,347,VALID,0,
2011-03-03, 01:11:04,VALID,1009.26,VALID,0,VALID,104,VALID,0.105969,VALID,23.8481,VALID,347,VALID,0,
2011-03-03, 01:12:04,VALID,1009.25,VALID,0,VALID,104,VALID,0.105969,VALID,23.8286,VALID,347,VALID,0,
2011-03-03, 01:13:04,VALID,1009.28,VALID,0,VALID,104,VALID,0.105969,VALID,23.8286,VALID,347,VALID,0,
2011-03-03, 01:14:04,VALID,1009.28,VALID,0,VALID,104,VALID,0.105969,VALID,23.8073,VALID,347,VALID,0,
2011-03-03, 01:15:04,VALID,1009.29,VALID,0,VALID,104,VALID,0.105969,VALID,23.8304,VALID,347,VALID,0,
2011-03-03, 01:16:04,VALID,1009.24,VALID,0,VALID,104,VALID,0.105969,VALID,23.8091,VALID,347,VALID,0,
2011-03-03, 01:17:04,VALID,1009.22,VALID,0,VALID,104,VALID,0.105969,VALID,23.8091,VALID,347,VALID,0,
2011-03-03, 01:18:04,VALID,1009.21,VALID,0,VALID,104,VALID,0.105969,VALID,23.8286,VALID,347,VALID,0,
2011-03-03, 01:19:04,VALID,1009.18,VALID,0,VALID,104,VALID,0.105969,VALID,23.8304,VALID,347,VALID,0,
2011-03-03, 01:20:04,VALID,1009.16,VALID,0,VALID,104,VALID,0.105969,VALID,23.7896,VALID,347,VALID,0,
2011-03-03, 01:21:04,VALID,1009.14,VALID,0,VALID,104,VALID,0.105969,VALID,23.8091,VALID,347,VALID,0,
2011-03-03, 01:22:04,VALID,1009.12,VALID,0,VALID,104,VALID,0.105969,VALID,23.8091,VALID,347,VALID,0,
2011-03-03, 01:23:04,VALID,1009.13,VALID,0,VALID,104,VALID,0.105969,VALID,23.8091,VALID,347,VALID,0,
2011-03-03, 01:24:04,VALID,1009.11,VALID,0,VALID,104,VALID,0.105969,VALID,23.7896,VALID,347,VALID,0,
2011-03-03, 01:25:04,VALID,1009.13,VALID,0,VALID,104,VALID,0.211938,VALID,23.8091,VALID,347,VALID,0,
2011-03-03, 01:26:04,VALID,1009.1,VALID,0,VALID,104,VALID,0.105969,VALID,23.7896,VALID,347,VALID,0,
2011-03-03, 01:27:04,VALID,1009.1,VALID,0,VALID,104,VALID,0.105969,VALID,23.8091,VALID,347,VALID,0,
2011-03-03, 01:28:04,VALID,1009.11,VALID,0,VALID,104,VALID,0.105969,VALID,23.8091,VALID,347,VALID,0,
2011-03-03, 01:29:04,VALID,1009.09,VALID,0,VALID,104,VALID,0.105969,VALID,23.8091,VALID,347,VALID,0,
2011-03-03, 01:30:04,VALID,1009.1,VALID,0,VALID,104,VALID,0.105969,VALID,23.8091,VALID,347,VALID,0,
2011-03-03, 01:31:04,VALID,1009.07,VALID,0,VALID,104,VALID,0.105969,VALID,23.8091,VALID,347,VALID,0,
2011-03-03, 01:32:04,VALID,1009.06,VALID,0,VALID,104,VALID,0.105969,VALID,23.8091,VALID,347,VALID,0,
2011-03-03, 01:33:04,VALID,1009.06,VALID,0,VALID,104,VALID,0,VALID,23.8091,VALID,347,VALID,0,
2011-03-03, 01:34:04,VALID,1009.09,VALID,0,VALID,104,VALID,0.105969,VALID,23.8091,VALID,347,VALID,0,
2011-03-03, 01:35:04,VALID,1009.07,VALID,0,VALID,104,VALID,0.105969,VALID,23.8091,VALID,347,VALID,0,
2011-03-03, 01:36:04,VALID,1009.08,VALID,0,VALID,104,VALID,0.105969,VALID,23.8073,VALID,347,VALID,0,
2011-03-03, 01:37:04,VALID,1009.04,VALID,0,VALID,104,VALID,0.105969,VALID,23.8481,VALID,347,VALID,0,
2011-03-03, 01:38:04,VALID,1008.98,VALID,0,VALID,104,VALID,0,VALID,23.8499,VALID,347,VALID,0,
2011-03-03, 01:39:04,VALID,1008.98,VALID,0,VALID,104,VALID,0,VALID,23.8499,VALID,347,VALID,0,
2011-03-03, 01:40:04,VALID,1008.98,VALID,0,VALID,104,VALID,0,VALID,23.8499,VALID,347,VALID,0,
2011-03-03, 01:41:04,VALID,1008.99,VALID,0,VALID,104,VALID,0,VALID,23.8712,VALID,347,VALID,0,
2011-03-03, 01:42:04,VALID,1008.96,VALID,0,VALID,104,VALID,0,VALID,23.8694,VALID,347,VALID,0,
2011-03-03, 01:43:04,VALID,1008.97,VALID,0,VALID,104,VALID,0,VALID,23.8694,VALID,347,VALID,0,
2011-03-03, 01:44:04,VALID,1008.94,VALID,0,VALID,104,VALID,0,VALID,23.8694,VALID,347,VALID,0,
2011-03-03, 01:45:04,VALID,1008.94,VALID,0,VALID,104,VALID,0,VALID,23.8694,VALID,347,VALID,0,
2011-03-03, 01:46:04,VALID,1008.9,VALID,0,VALID,104,VALID,0,VALID,23.9102,VALID,347,VALID,0,
2011-03-03, 01:47:04,VALID,1008.9,VALID,0,VALID,104,VALID,0,VALID,23.8694,VALID,347,VALID,0,
2011-03-03, 01:48:04,VALID,1008.89,VALID,0,VALID,104,VALID,0,VALID,23.8694,VALID,347,VALID,0,
2011-03-03, 01:49:04,VALID,1008.87,VALID,0,VALID,104,VALID,0,VALID,23.8907,VALID,347,VALID,0,
2011-03-03, 01:50:04,VALID,1008.88,VALID,0,VALID,104,VALID,0,VALID,23.8694,VALID,347,VALID,0,
2011-03-03, 01:51:04,VALID,1008.82,VALID,0,VALID,104,VALID,0,VALID,23.8499,VALID,347,VALID,0,
2011-03-03, 01:52:04,VALID,1008.81,VALID,0,VALID,104,VALID,0,VALID,23.8499,VALID,347,VALID,0,
2011-03-03, 01:53:04,VALID,1008.79,VALID,0,VALID,104,VALID,0.105969,VALID,23.8073,VALID,347,VALID,0,
2011-03-03, 01:54:04,VALID,1008.78,VALID,0,VALID,104,VALID,0.105969,VALID,23.8073,VALID,347,VALID,0,
2011-03-03, 01:55:04,VALID,1008.76,VALID,0,VALID,104,VALID,0.105969,VALID,23.7896,VALID,347,VALID,0,
2011-03-03, 01:56:04,VALID,1008.75,VALID,0,VALID,104,VALID,0.105969,VALID,23.7701,VALID,347,VALID,0,
2011-03-03, 01:57:04,VALID,1008.75,VALID,0,VALID,104,VALID,0.105969,VALID,23.7701,VALID,347,VALID,0,
2011-03-03, 01:58:04,VALID,1008.76,VALID,0,VALID,104,VALID,0.105969,VALID,23.7701,VALID,347,VALID,0,
2011-03-03, 01:59:04,VALID,1008.72,VALID,0,VALID,104,VALID,0.105969,VALID,23.7312,VALID,347,VALID,0,
2011-03-03, 02:00:04,VALID,1008.71,VALID,0,VALID,104,VALID,0,VALID,23.7312,VALID,347,VALID,0,
2011-03-03, 02:01:04,VALID,1008.71,VALID,0,VALID,104,VALID,0,VALID,23.7312,VALID,347,VALID,0,
2011-03-03, 02:02:04,VALID,1008.71,VALID,0,VALID,104,VALID,0.105969,VALID,23.7312,VALID,347,VALID,0,
2011-03-03, 02:03:04,VALID,1008.67,VALID,0,VALID,104,VALID,0.105969,VALID,23.733,VALID,347,VALID,0,
2011-03-03, 02:04:04,VALID,1008.67,VALID,0,VALID,104,VALID,0,VALID,23.733,VALID,347,VALID,0,
2011-03-03, 02:05:04,VALID,1008.65,VALID,0,VALID,104,VALID,0.105969,VALID,23.7117,VALID,347,VALID,0,
2011-03-03, 02:06:04,VALID,1008.67,VALID,0,VALID,104,VALID,0.105969,VALID,23.7117,VALID,347,VALID,0,
2011-03-03, 02:07:04,VALID,1008.67,VALID,0,VALID,104,VALID,0.105969,VALID,23.7117,VALID,347,VALID,0,
2011-03-03, 02:08:04,VALID,1008.69,VALID,0,VALID,104,VALID,0,VALID,23.7135,VALID,347,VALID,0,
2011-03-03, 02:09:04,VALID,1008.67,VALID,0,VALID,104,VALID,0,VALID,23.733,VALID,347,VALID,0,
2011-03-03, 02:10:04,VALID,1008.69,VALID,0,VALID,104,VALID,0,VALID,23.733,VALID,347,VALID,0,
2011-03-03, 02:11:04,VALID,1008.67,VALID,0,VALID,104,VALID,0,VALID,23.733,VALID,347,VALID,0,
2011-03-03, 02:12:04,VALID,1008.7,VALID,0,VALID,104,VALID,0,VALID,23.7543,VALID,347,VALID,0,
2011-03-03, 02:13:04,VALID,1008.7,VALID,0,VALID,104,VALID,0,VALID,23.733,VALID,347,VALID,0,
2011-03-03, 02:14:04,VALID,1008.7,VALID,0,VALID,104,VALID,0,VALID,23.7525,VALID,347,VALID,0,
2011-03-03, 02:15:04,VALID,1008.7,VALID,0,VALID,104,VALID,0,VALID,23.7525,VALID,347,VALID,0,
2011-03-03, 02:16:04,VALID,1008.73,VALID,0,VALID,104,VALID,0,VALID,23.772,VALID,347,VALID,0,
2011-03-03, 02:17:04,VALID,1008.73,VALID,0,VALID,104,VALID,0,VALID,23.772,VALID,347,VALID,0,
2011-03-03, 02:18:04,VALID,1008.73,VALID,0,VALID,104,VALID,0,VALID,23.7914,VALID,347,VALID,0,
2011-03-03, 02:19:04,VALID,1008.73,VALID,0,VALID,104,VALID,0,VALID,23.772,VALID,347,VALID,0,
2011-03-03, 02:20:04,VALID,1008.73,VALID,0,VALID,104,VALID,0,VALID,23.772,VALID,347,VALID,0,
2011-03-03, 02:21:04,VALID,1008.74,VALID,0,VALID,104,VALID,0,VALID,23.772,VALID,347,VALID,0,
2011-03-03, 02:22:04,VALID,1008.73,VALID,0,VALID,104,VALID,0,VALID,23.772,VALID,347,VALID,0,
2011-03-03, 02:23:04,VALID,1008.77,VALID,0,VALID,104,VALID,0.105969,VALID,23.7507,VALID,347,VALID,0,
2011-03-03, 02:24:04,VALID,1008.75,VALID,0,VALID,104,VALID,0.105969,VALID,23.772,VALID,347,VALID,0,
2011-03-03, 02:25:04,VALID,1008.77,VALID,0,VALID,104,VALID,0.105969,VALID,23.7312,VALID,347,VALID,0,
2011-03-03, 02:26:04,VALID,1008.77,VALID,0,VALID,104,VALID,0.105969,VALID,23.772,VALID,347,VALID,0,
2011-03-03, 02:27:04,VALID,1008.76,VALID,0,VALID,104,VALID,0,VALID,23.7312,VALID,347,VALID,0,
2011-03-03, 02:28:04,VALID,1008.75,VALID,0,VALID,104,VALID,0,VALID,23.7312,VALID,347,VALID,0,
2011-03-03, 02:29:04,VALID,1008.76,VALID,0,VALID,104,VALID,0.105969,VALID,23.7525,VALID,347,VALID,0,
2011-03-03, 02:30:04,VALID,1008.74,VALID,0,VALID,104,VALID,0,VALID,23.7117,VALID,347,VALID,0,
2011-03-03, 02:31:04,VALID,1008.73,VALID,0,VALID,104,VALID,0,VALID,23.7117,VALID,347,VALID,0,
2011-03-03, 02:32:04,VALID,1008.74,VALID,0,VALID,104,VALID,0.105969,VALID,23.6922,VALID,347,VALID,0,
2011-03-03, 02:33:04,VALID,1008.72,VALID,0,VALID,104,VALID,0,VALID,23.6922,VALID,347,VALID,0,
2011-03-03, 02:34:04,VALID,1008.71,VALID,0,VALID,104,VALID,0.105969,VALID,23.6922,VALID,347,VALID,0,
2011-03-03, 02:35:04,VALID,1008.7,VALID,0,VALID,104,VALID,0.105969,VALID,23.6727,VALID,347,VALID,0,
2011-03-03, 02:36:04,VALID,1008.68,VALID,0,VALID,104,VALID,0.105969,VALID,23.6727,VALID,347,VALID,0,
2011-03-03, 02:37:04,VALID,1008.68,VALID,0,VALID,104,VALID,0.105969,VALID,23.6532,VALID,347,VALID,0,
2011-03-03, 02:38:04,VALID,1008.72,VALID,0,VALID,104,VALID,0,VALID,23.6727,VALID,347,VALID,0,
2011-03-03, 02:39:04,VALID,1008.73,VALID,0,VALID,104,VALID,0,VALID,23.6727,VALID,347,VALID,0,
2011-03-03, 02:40:04,VALID,1008.72,VALID,0,VALID,104,VALID,0,VALID,23.6745,VALID,347,VALID,0,
2011-03-03, 02:41:04,VALID,1008.73,VALID,0,VALID,104,VALID,0,VALID,23.6532,VALID,347,VALID,0,
2011-03-03, 02:42:04,VALID,1008.7,VALID,0,VALID,104,VALID,0,VALID,23.6532,VALID,347,VALID,0,
2011-03-03, 02:43:04,VALID,1008.71,VALID,0,VALID,104,VALID,0,VALID,23.6338,VALID,347,VALID,0,
2011-03-03, 02:44:04,VALID,1008.71,VALID,0,VALID,104,VALID,0,VALID,23.6338,VALID,347,VALID,0,
2011-03-03, 02:45:04,VALID,1008.71,VALID,0,VALID,104,VALID,0,VALID,23.6356,VALID,347,VALID,0,
2011-03-03, 02:46:04,VALID,1008.72,VALID,0,VALID,104,VALID,0,VALID,23.6143,VALID,347,VALID,0,
2011-03-03, 02:47:04,VALID,1008.68,VALID,0,VALID,104,VALID,0.105969,VALID,23.5948,VALID,347,VALID,0,
2011-03-03, 02:48:04,VALID,1008.68,VALID,0,VALID,104,VALID,0,VALID,23.5966,VALID,347,VALID,0,
2011-03-03, 02:49:04,VALID,1008.67,VALID,0,VALID,104,VALID,0.105969,VALID,23.5753,VALID,347,VALID,0,
2011-03-03, 02:50:04,VALID,1008.67,VALID,0,VALID,104,VALID,0,VALID,23.5558,VALID,347,VALID,0,
2011-03-03, 02:51:04,VALID,1008.63,VALID,0,VALID,104,VALID,0,VALID,23.5558,VALID,347,VALID,0,
2011-03-03, 02:52:04,VALID,1008.67,VALID,0,VALID,104,VALID,0,VALID,23.5576,VALID,347,VALID,0,
2011-03-03, 02:53:04,VALID,1008.68,VALID,0,VALID,104,VALID,0,VALID,23.5576,VALID,347,VALID,0,
2011-03-03, 02:54:04,VALID,1008.69,VALID,0,VALID,104,VALID,0,VALID,23.5576,VALID,347,VALID,0,
2011-03-03, 02:55:04,VALID,1008.7,VALID,0,VALID,104,VALID,0,VALID,23.5576,VALID,347,VALID,0,
2011-03-03, 02:56:04,VALID,1008.69,VALID,0,VALID,104,VALID,0,VALID,23.5771,VALID,347,VALID,0,
2011-03-03, 02:57:04,VALID,1008.68,VALID,0,VALID,104,VALID,0,VALID,23.5771,VALID,347,VALID,0,
2011-03-03, 02:58:04,VALID,1008.69,VALID,0,VALID,104,VALID,0,VALID,23.5558,VALID,347,VALID,0,
2011-03-03, 02:59:04,VALID,1008.66,VALID,0,VALID,104,VALID,0,VALID,23.5558,VALID,347,VALID,0,
2011-03-03, 03:00:04,VALID,1008.65,VALID,0,VALID,104,VALID,0.105969,VALID,23.5363,VALID,347,VALID,0,
2011-03-03, 03:01:04,VALID,1008.63,VALID,0,VALID,104,VALID,0,VALID,23.5363,VALID,347,VALID,0,
2011-03-03, 03:02:04,VALID,1008.65,VALID,0,VALID,104,VALID,0,VALID,23.5771,VALID,347,VALID,0,
2011-03-03, 03:03:04,VALID,1008.62,VALID,0,VALID,104,VALID,0,VALID,23.5558,VALID,347,VALID,0,
2011-03-03, 03:04:04,VALID,1008.63,VALID,0,VALID,104,VALID,0,VALID,23.5558,VALID,347,VALID,0,
2011-03-03, 03:05:04,VALID,1008.63,VALID,0,VALID,104,VALID,0,VALID,23.5771,VALID,347,VALID,0,
2011-03-03, 03:06:04,VALID,1008.61,VALID,0,VALID,104,VALID,0,VALID,23.5771,VALID,347,VALID,0,
2011-03-03, 03:07:04,VALID,1008.62,VALID,0,VALID,104,VALID,0,VALID,23.5558,VALID,347,VALID,0,
2011-03-03, 03:08:04,VALID,1008.65,VALID,0,VALID,104,VALID,0,VALID,23.5576,VALID,347,VALID,0,
2011-03-03, 03:09:04,VALID,1008.66,VALID,0,VALID,104,VALID,0,VALID,23.5381,VALID,347,VALID,0,
2011-03-03, 03:10:04,VALID,1008.65,VALID,0,VALID,104,VALID,0,VALID,23.5381,VALID,347,VALID,0,
2011-03-03, 03:11:04,VALID,1008.64,VALID,0,VALID,104,VALID,0,VALID,23.5381,VALID,347,VALID,0,
2011-03-03, 03:12:04,VALID,1008.62,VALID,0,VALID,104,VALID,0,VALID,23.5381,VALID,347,VALID,0,
2011-03-03, 03:13:04,VALID,1008.64,VALID,0,VALID,104,VALID,0,VALID,23.5186,VALID,347,VALID,0,
2011-03-03, 03:14:04,VALID,1008.62,VALID,0,VALID,104,VALID,0,VALID,23.5399,VALID,347,VALID,0,
2011-03-03, 03:15:04,VALID,1008.61,VALID,0,VALID,104,VALID,0,VALID,23.5186,VALID,347,VALID,0,
2011-03-03, 03:16:04,VALID,1008.55,VALID,0,VALID,104,VALID,0,VALID,23.5186,VALID,347,VALID,0,
2011-03-03, 03:17:04,VALID,1008.55,VALID,0,VALID,104,VALID,0,VALID,23.4797,VALID,347,VALID,0,
2011-03-03, 03:18:04,VALID,1008.54,VALID,0,VALID,104,VALID,0,VALID,23.4992,VALID,347,VALID,0,
2011-03-03, 03:19:04,VALID,1008.51,VALID,0,VALID,104,VALID,0,VALID,23.4602,VALID,347,VALID,0,
2011-03-03, 03:20:04,VALID,1008.51,VALID,0,VALID,104,VALID,0,VALID,23.4797,VALID,347,VALID,0,
2011-03-03, 03:21:04,VALID,1008.52,VALID,0,VALID,104,VALID,0,VALID,23.4797,VALID,340,VALID,0,
2011-03-03, 03:22:04,VALID,1008.5,VALID,0,VALID,104,VALID,0,VALID,23.5399,VALID,340,VALID,0,
2011-03-03, 03:23:04,VALID,1008.46,VALID,0,VALID,104,VALID,0.105969,VALID,23.4974,VALID,340,VALID,0,
2011-03-03, 03:24:04,VALID,1008.46,VALID,0,VALID,104,VALID,0,VALID,23.4974,VALID,340,VALID,0,
2011-03-03, 03:25:04,VALID,1008.47,VALID,0,VALID,104,VALID,0,VALID,23.5186,VALID,340,VALID,0,
2011-03-03, 03:26:04,VALID,1008.48,VALID,0,VALID,104,VALID,0,VALID,23.5186,VALID,340,VALID,0,
2011-03-03, 03:27:04,VALID,1008.45,VALID,0,VALID,104,VALID,0,VALID,23.4974,VALID,340,VALID,0,
2011-03-03, 03:28:04,VALID,1008.42,VALID,0,VALID,104,VALID,0.105969,VALID,23.4974,VALID,340,VALID,0,
2011-03-03, 03:29:04,VALID,1008.44,VALID,0,VALID,104,VALID,0,VALID,23.5186,VALID,340,VALID,0,
2011-03-03, 03:30:04,VALID,1008.39,VALID,0,VALID,104,VALID,0,VALID,23.5186,VALID,340,VALID,0,
2011-03-03, 03:31:04,VALID,1008.36,VALID,0,VALID,104,VALID,0,VALID,23.5186,VALID,340,VALID,0,
2011-03-03, 03:32:04,VALID,1008.36,VALID,0,VALID,104,VALID,0,VALID,23.4974,VALID,340,VALID,0,
2011-03-03, 03:33:04,VALID,1008.37,VALID,0,VALID,104,VALID,0,VALID,23.4974,VALID,340,VALID,0,
2011-03-03, 03:34:04,VALID,1008.33,VALID,0,VALID,104,VALID,0,VALID,23.4974,VALID,340,VALID,0,
2011-03-03, 03:35:04,VALID,1008.31,VALID,0,VALID,104,VALID,0,VALID,23.4974,VALID,340,VALID,0,
2011-03-03, 03:36:04,VALID,1008.32,VALID,0,VALID,104,VALID,0,VALID,23.4992,VALID,340,VALID,0,
2011-03-03, 03:37:04,VALID,1008.33,VALID,0,VALID,104,VALID,0,VALID,23.4584,VALID,340,VALID,0,
2011-03-03, 03:38:04,VALID,1008.3,VALID,0,VALID,104,VALID,0,VALID,23.4815,VALID,340,VALID,0,
2011-03-03, 03:39:04,VALID,1008.3,VALID,0,VALID,104,VALID,0,VALID,23.4407,VALID,340,VALID,0,
2011-03-03, 03:40:04,VALID,1008.31,VALID,0,VALID,104,VALID,0,VALID,23.4407,VALID,340,VALID,0,
2011-03-03, 03:41:04,VALID,1008.31,VALID,0,VALID,104,VALID,0,VALID,23.462,VALID,340,VALID,0,
2011-03-03, 03:42:04,VALID,1008.31,VALID,0,VALID,104,VALID,0,VALID,23.4407,VALID,340,VALID,0,
2011-03-03, 03:43:04,VALID,1008.28,VALID,0,VALID,104,VALID,0,VALID,23.4425,VALID,340,VALID,0,
2011-03-03, 03:44:04,VALID,1008.27,VALID,0,VALID,104,VALID,0,VALID,23.4425,VALID,340,VALID,0,
2011-03-03, 03:45:04,VALID,1008.23,VALID,0,VALID,104,VALID,0,VALID,23.423,VALID,340,VALID,0,
2011-03-03, 03:46:04,VALID,1008.24,VALID,0,VALID,104,VALID,0,VALID,23.423,VALID,340,VALID,0,
2011-03-03, 03:47:04,VALID,1008.17,VALID,0,VALID,104,VALID,0,VALID,23.4017,VALID,340,VALID,0,
2011-03-03, 03:48:04,VALID,1008.19,VALID,0,VALID,104,VALID,0,VALID,23.4017,VALID,340,VALID,0,
2011-03-03, 03:49:04,VALID,1008.15,VALID,0,VALID,104,VALID,0,VALID,23.4212,VALID,340,VALID,0,
2011-03-03, 03:50:04,VALID,1008.2,VALID,0,VALID,104,VALID,0,VALID,23.4212,VALID,340,VALID,0,
2011-03-03, 03:51:04,VALID,1008.17,VALID,0,VALID,104,VALID,0,VALID,23.423,VALID,340,VALID,0,
2011-03-03, 03:52:04,VALID,1008.17,VALID,0,VALID,104,VALID,0,VALID,23.4017,VALID,340,VALID,0,
2011-03-03, 03:53:04,VALID,1008.16,VALID,0,VALID,104,VALID,0.105969,VALID,23.4,VALID,340,VALID,0,
2011-03-03, 03:54:04,VALID,1008.15,VALID,0,VALID,104,VALID,0,VALID,23.4,VALID,340,VALID,0,
2011-03-03, 03:55:04,VALID,1008.14,VALID,0,VALID,104,VALID,0.105969,VALID,23.4,VALID,340,VALID,0,
2011-03-03, 03:56:04,VALID,1008.11,VALID,0,VALID,104,VALID,0,VALID,23.3805,VALID,340,VALID,0,
2011-03-03, 03:57:04,VALID,1008.07,VALID,0,VALID,104,VALID,0.105969,VALID,23.4194,VALID,340,VALID,0,
2011-03-03, 03:58:04,VALID,1008.05,VALID,0,VALID,104,VALID,0,VALID,23.4194,VALID,340,VALID,0,
2011-03-03, 03:59:04,VALID,1008.05,VALID,0,VALID,104,VALID,0,VALID,23.4,VALID,340,VALID,0,
2011-03-03, 04:00:04,VALID,1008.06,VALID,0,VALID,104,VALID,0.105969,VALID,23.4,VALID,340,VALID,0,
2011-03-03, 04:01:04,VALID,1008.06,VALID,0,VALID,104,VALID,0,VALID,23.4194,VALID,340,VALID,0,
2011-03-03, 04:02:04,VALID,1008.09,VALID,0,VALID,104,VALID,0.105969,VALID,23.4389,VALID,340,VALID,0,